Time,TemperatureF,DewpointF,PressureIn,WindDirection,WindDirectionDegrees,WindSpeedMPH,WindSpeedGustMPH,Humidity,HourlyPrecipIn,Conditions,Clouds,dailyrainin,SoftwareType,DateUTC
2013-04-08 00:03:00,56.0,44.0,30.08,West,277,1.0,4.0,63,0.00,,,0.00,,2013-04-08 04:03:00,
2013-04-08 00:13:00,56.0,44.0,30.08,West,277,1.0,4.0,63,0.00,,,0.00,,2013-04-08 04:13:00,
2013-04-08 00:23:00,55.0,43.0,30.07,WNW,283,0.0,4.0,64,0.00,,,0.00,,2013-04-08 04:23:00,
2013-04-08 00:34:00,55.0,43.0,30.08,WNW,282,1.0,3.0,65,0.00,,,0.00,,2013-04-08 04:34:00,
2013-04-08 00:44:00,55.0,43.0,30.08,WNW,282,1.0,3.0,65,0.00,,,0.00,,2013-04-08 04:44:00,
2013-04-08 00:52:00,54.0,43.0,30.08,WSW,252,1.0,5.0,66,0.00,,,0.00,,2013-04-08 04:52:00,
2013-04-08 01:03:00,54.0,43.0,30.07,West,280,2.0,4.0,67,0.00,,,0.00,,2013-04-08 05:03:00,
2013-04-08 01:12:00,54.0,43.0,30.07,West,280,2.0,4.0,67,0.00,,,0.00,,2013-04-08 05:12:00,
2013-04-08 01:22:00,54.0,43.0,30.07,West,280,2.0,4.0,67,0.00,,,0.00,,2013-04-08 05:22:00,
2013-04-08 01:32:00,53.0,43.0,30.07,West,260,0.0,2.0,68,0.00,,,0.00,,2013-04-08 05:32:00,
2013-04-08 01:42:00,53.0,43.0,30.07,West,260,0.0,2.0,68,0.00,,,0.00,,2013-04-08 05:42:00,
2013-04-08 01:52:00,53.0,43.0,30.08,West,260,0.0,1.0,69,0.00,,,0.00,,2013-04-08 05:52:00,
2013-04-08 02:02:00,52.0,43.0,30.08,West,260,0.0,1.0,71,0.00,,,0.00,,2013-04-08 06:02:00,
2013-04-08 02:12:00,52.0,43.0,30.08,West,260,0.0,1.0,71,0.00,,,0.00,,2013-04-08 06:12:00,
2013-04-08 02:22:00,51.0,43.0,30.08,West,260,0.0,1.0,73,0.00,,,0.00,,2013-04-08 06:22:00,
2013-04-08 02:32:00,50.0,42.0,30.08,West,260,0.0,1.0,75,0.00,,,0.00,,2013-04-08 06:32:00,
2013-04-08 02:43:00,50.0,42.0,30.08,West,260,0.0,1.0,75,0.00,,,0.00,,2013-04-08 06:43:00,
2013-04-08 02:52:00,49.0,42.0,30.08,West,260,0.0,0.0,76,0.00,,,0.00,,2013-04-08 06:52:00,
2013-04-08 03:02:00,49.0,42.0,30.07,West,260,0.0,1.0,77,0.00,,,0.00,,2013-04-08 07:02:00,
2013-04-08 03:12:00,49.0,42.0,30.07,West,260,0.0,1.0,77,0.00,,,0.00,,2013-04-08 07:12:00,
2013-04-08 03:22:00,48.0,41.0,30.06,West,260,0.0,0.0,78,0.00,,,0.00,,2013-04-08 07:22:00,
2013-04-08 03:33:00,48.0,41.0,30.06,West,260,0.0,0.0,78,0.00,,,0.00,,2013-04-08 07:33:00,
2013-04-08 03:42:00,48.0,41.0,30.06,West,260,0.0,0.0,78,0.00,,,0.00,,2013-04-08 07:42:00,
2013-04-08 03:52:00,47.0,41.0,30.06,West,260,0.0,1.0,81,0.00,,,0.00,,2013-04-08 07:52:00,
2013-04-08 04:02:00,47.0,41.0,30.06,West,260,0.0,1.0,81,0.00,,,0.00,,2013-04-08 08:02:00,
2013-04-08 04:12:00,47.0,41.0,30.06,West,260,0.0,1.0,81,0.00,,,0.00,,2013-04-08 08:12:00,
2013-04-08 04:22:00,47.0,41.0,30.06,West,260,0.0,1.0,81,0.00,,,0.00,,2013-04-08 08:22:00,
2013-04-08 04:33:00,46.0,41.0,30.06,West,260,0.0,0.0,82,0.00,,,0.00,,2013-04-08 08:33:00,
2013-04-08 04:43:00,46.0,41.0,30.06,West,260,0.0,1.0,83,0.00,,,0.00,,2013-04-08 08:43:00,
2013-04-08 04:52:00,45.0,40.0,30.06,West,260,0.0,1.0,84,0.00,,,0.00,,2013-04-08 08:52:00,
2013-04-08 05:03:00,45.0,40.0,30.07,West,260,0.0,0.0,84,0.00,,,0.00,,2013-04-08 09:03:00,
2013-04-08 05:12:00,45.0,40.0,30.08,West,260,0.0,0.0,84,0.00,,,0.00,,2013-04-08 09:12:00,
2013-04-08 05:23:00,45.0,40.0,30.08,West,260,0.0,0.0,84,0.00,,,0.00,,2013-04-08 09:23:00,
2013-04-08 05:33:00,45.0,41.0,30.07,West,260,0.0,0.0,85,0.00,,,0.00,,2013-04-08 09:33:00,
2013-04-08 05:43:00,45.0,41.0,30.07,West,260,0.0,0.0,85,0.00,,,0.00,,2013-04-08 09:43:00,
2013-04-08 05:53:00,45.0,41.0,30.07,West,260,0.0,0.0,86,0.00,,,0.00,,2013-04-08 09:53:00,
2013-04-08 06:03:00,45.0,41.0,30.07,West,260,0.0,0.0,86,0.00,,,0.00,,2013-04-08 10:03:00,
2013-04-08 06:13:00,45.0,41.0,30.07,West,260,0.0,0.0,86,0.00,,,0.00,,2013-04-08 10:13:00,
2013-04-08 06:23:00,45.0,41.0,30.08,West,260,0.0,0.0,86,0.00,,,0.00,,2013-04-08 10:23:00,
2013-04-08 06:33:00,45.0,41.0,30.08,West,260,0.0,0.0,86,0.00,,,0.00,,2013-04-08 10:33:00,
2013-04-08 06:43:00,45.0,41.0,30.08,West,260,0.0,0.0,86,0.00,,,0.00,,2013-04-08 10:43:00,
2013-04-08 06:52:00,44.0,40.0,30.08,West,260,0.0,0.0,86,0.00,,,0.00,,2013-04-08 10:52:00,
2013-04-08 07:03:00,44.0,40.0,30.09,West,260,0.0,0.0,87,0.00,,,0.00,,2013-04-08 11:03:00,
2013-04-08 07:12:00,44.0,40.0,30.09,West,260,0.0,0.0,87,0.00,,,0.00,,2013-04-08 11:12:00,
2013-04-08 07:23:00,44.0,40.0,30.09,West,260,0.0,0.0,87,0.00,,,0.00,,2013-04-08 11:23:00,
2013-04-08 07:32:00,44.0,41.0,30.10,West,260,0.0,0.0,88,0.00,,,0.00,,2013-04-08 11:32:00,
2013-04-08 07:42:00,44.0,41.0,30.10,West,260,0.0,0.0,88,0.00,,,0.00,,2013-04-08 11:42:00,
2013-04-08 07:52:00,44.0,41.0,30.11,West,260,0.0,0.0,88,0.00,,,0.00,,2013-04-08 11:52:00,
2013-04-08 08:03:00,44.0,41.0,30.11,West,260,0.0,0.0,88,0.00,,,0.00,,2013-04-08 12:03:00,
2013-04-08 08:12:00,44.0,41.0,30.11,West,260,0.0,0.0,88,0.00,,,0.00,,2013-04-08 12:12:00,
2013-04-08 08:23:00,44.0,41.0,30.11,West,260,0.0,0.0,89,0.00,,,0.00,,2013-04-08 12:23:00,
2013-04-08 08:33:00,45.0,42.0,30.11,West,260,0.0,0.0,89,0.00,,,0.00,,2013-04-08 12:33:00,
2013-04-08 08:42:00,45.0,42.0,30.11,West,260,0.0,0.0,89,0.00,,,0.00,,2013-04-08 12:42:00,
2013-04-08 08:52:00,47.0,44.0,30.11,South,175,0.0,2.0,88,0.00,,,0.00,,2013-04-08 12:52:00,
2013-04-08 09:03:00,50.0,44.0,30.11,WSW,256,0.0,4.0,79,0.00,,,0.00,,2013-04-08 13:03:00,
2013-04-08 09:12:00,50.0,44.0,30.11,WSW,256,0.0,4.0,79,0.00,,,0.00,,2013-04-08 13:12:00,
2013-04-08 09:22:00,53.0,45.0,30.12,SW,228,1.0,3.0,73,0.00,,,0.00,,2013-04-08 13:22:00,
2013-04-08 09:32:00,54.0,44.0,30.12,West,269,3.0,6.0,69,0.00,,,0.00,,2013-04-08 13:32:00,
2013-04-08 09:43:00,54.0,44.0,30.12,West,269,3.0,6.0,69,0.00,,,0.00,,2013-04-08 13:43:00,
2013-04-08 09:52:00,55.0,46.0,30.11,SW,228,0.0,4.0,71,0.00,,,0.00,,2013-04-08 13:52:00,
2013-04-08 10:03:00,55.0,44.0,30.11,WNW,290,3.0,7.0,67,0.00,,,0.00,,2013-04-08 14:03:00,
2013-04-08 10:12:00,55.0,44.0,30.11,WNW,290,3.0,7.0,67,0.00,,,0.00,,2013-04-08 14:12:00,
2013-04-08 10:22:00,55.0,44.0,30.11,WNW,291,4.0,8.0,66,0.00,,,0.00,,2013-04-08 14:22:00,
2013-04-08 10:33:00,57.0,45.0,30.11,WNW,289,3.0,7.0,65,0.00,,,0.00,,2013-04-08 14:33:00,
2013-04-08 10:43:00,58.0,45.0,30.11,NW,317,2.0,6.0,63,0.00,,,0.00,,2013-04-08 14:43:00,
2013-04-08 10:52:00,58.0,45.0,30.11,NW,317,2.0,6.0,63,0.00,,,0.00,,2013-04-08 14:52:00,
2013-04-08 11:02:00,61.0,46.0,30.11,West,259,3.0,6.0,58,0.00,,,0.00,,2013-04-08 15:02:00,
2013-04-08 11:12:00,62.0,47.0,30.11,SW,236,1.0,5.0,57,0.00,,,0.00,,2013-04-08 15:12:00,
2013-04-08 11:22:00,62.0,47.0,30.11,SW,236,1.0,5.0,57,0.00,,,0.00,,2013-04-08 15:22:00,
2013-04-08 11:34:00,63.0,46.0,30.10,WNW,292,3.0,6.0,53,0.00,,,0.00,,2013-04-08 15:34:00,
2013-04-08 11:43:00,63.0,46.0,30.10,WNW,292,3.0,6.0,53,0.00,,,0.00,,2013-04-08 15:43:00,
2013-04-08 11:53:00,65.0,46.0,30.10,West,260,3.0,6.0,51,0.00,,,0.00,,2013-04-08 15:53:00,
2013-04-08 12:03:00,66.0,46.0,30.09,West,265,4.0,9.0,49,0.00,,,0.00,,2013-04-08 16:03:00,
2013-04-08 12:13:00,66.0,46.0,30.09,West,265,4.0,9.0,49,0.00,,,0.00,,2013-04-08 16:13:00,
2013-04-08 12:23:00,67.0,46.0,30.09,WNW,301,6.0,10.0,46,0.00,,,0.00,,2013-04-08 16:23:00,
2013-04-08 12:33:00,67.0,46.0,30.09,WNW,301,6.0,10.0,46,0.00,,,0.00,,2013-04-08 16:33:00,
2013-04-08 12:42:00,69.0,47.0,30.08,West,271,4.0,8.0,45,0.00,,,0.00,,2013-04-08 16:42:00,
2013-04-08 12:53:00,70.0,48.0,30.07,West,275,4.0,13.0,45,0.00,,,0.00,,2013-04-08 16:53:00,
2013-04-08 13:03:00,70.0,47.0,30.07,SSW,213,4.0,11.0,44,0.00,,,0.00,,2013-04-08 17:03:00,
2013-04-08 13:12:00,70.0,46.0,30.06,West,263,8.0,12.0,42,0.00,,,0.00,,2013-04-08 17:12:00,
2013-04-08 13:23:00,70.0,46.0,30.06,West,263,8.0,12.0,42,0.00,,,0.00,,2013-04-08 17:23:00,
2013-04-08 13:32:00,70.0,46.0,30.05,WSW,258,5.0,11.0,43,0.00,,,0.00,,2013-04-08 17:32:00,
2013-04-08 13:43:00,70.0,46.0,30.05,WSW,258,5.0,11.0,43,0.00,,,0.00,,2013-04-08 17:43:00,
2013-04-08 13:52:00,70.0,47.0,30.05,West,265,7.0,12.0,44,0.00,,,0.00,,2013-04-08 17:52:00,
2013-04-08 14:02:00,71.0,46.0,30.04,West,259,6.0,14.0,41,0.00,,,0.00,,2013-04-08 18:02:00,
2013-04-08 14:12:00,71.0,46.0,30.04,West,259,6.0,14.0,41,0.00,,,0.00,,2013-04-08 18:12:00,
2013-04-08 14:23:00,72.0,46.0,30.03,West,261,4.0,16.0,40,0.00,,,0.00,,2013-04-08 18:23:00,
2013-04-08 14:32:00,73.0,47.0,30.02,West,274,3.0,12.0,40,0.00,,,0.00,,2013-04-08 18:32:00,
2013-04-08 14:42:00,73.0,45.0,30.01,West,271,6.0,12.0,37,0.00,,,0.00,,2013-04-08 18:42:00,
2013-04-08 14:52:00,73.0,45.0,30.01,West,271,6.0,12.0,37,0.00,,,0.00,,2013-04-08 18:52:00,
2013-04-08 15:03:00,74.0,46.0,30.01,WSW,248,3.0,9.0,37,0.00,,,0.00,,2013-04-08 19:03:00,
2013-04-08 15:12:00,74.0,46.0,30.01,WSW,248,3.0,9.0,37,0.00,,,0.00,,2013-04-08 19:12:00,
2013-04-08 15:23:00,73.0,45.0,30.01,SW,226,5.0,12.0,37,0.00,,,0.00,,2013-04-08 19:23:00,
2013-04-08 15:33:00,73.0,46.0,30.00,West,272,6.0,13.0,38,0.00,,,0.00,,2013-04-08 19:33:00,
2013-04-08 15:43:00,74.0,47.0,29.98,SSE,165,5.0,12.0,39,0.00,,,0.00,,2013-04-08 19:43:00,
2013-04-08 15:52:00,74.0,47.0,29.98,SSE,165,5.0,12.0,39,0.00,,,0.00,,2013-04-08 19:52:00,
2013-04-08 16:02:00,73.0,47.0,29.98,WSW,257,3.0,15.0,39,0.00,,,0.00,,2013-04-08 20:02:00,
2013-04-08 16:12:00,74.0,46.0,29.98,SW,218,6.0,17.0,37,0.00,,,0.00,,2013-04-08 20:12:00,
2013-04-08 16:23:00,74.0,46.0,29.98,SW,218,6.0,17.0,37,0.00,,,0.00,,2013-04-08 20:23:00,
2013-04-08 16:33:00,74.0,45.0,29.98,WNW,301,6.0,14.0,36,0.00,,,0.00,,2013-04-08 20:33:00,
2013-04-08 16:43:00,74.0,45.0,29.98,WNW,301,6.0,14.0,36,0.00,,,0.00,,2013-04-08 20:43:00,
2013-04-08 16:52:00,75.0,46.0,29.97,SSW,204,4.0,13.0,36,0.00,,,0.00,,2013-04-08 20:52:00,
2013-04-08 17:02:00,75.0,47.0,29.97,WSW,241,3.0,13.0,37,0.00,,,0.00,,2013-04-08 21:02:00,
2013-04-08 17:12:00,75.0,47.0,29.97,WSW,241,3.0,13.0,37,0.00,,,0.00,,2013-04-08 21:12:00,
2013-04-08 17:22:00,74.0,47.0,29.97,SW,219,5.0,12.0,39,0.00,,,0.00,,2013-04-08 21:22:00,
2013-04-08 17:33:00,73.0,48.0,29.97,WSW,248,6.0,14.0,41,0.00,,,0.00,,2013-04-08 21:33:00,
2013-04-08 17:43:00,73.0,48.0,29.97,WSW,248,6.0,14.0,41,0.00,,,0.00,,2013-04-08 21:43:00,
2013-04-08 17:52:00,73.0,49.0,29.96,SW,227,4.0,13.0,42,0.00,,,0.00,,2013-04-08 21:52:00,
2013-04-08 18:03:00,74.0,50.0,29.96,SW,215,6.0,17.0,43,0.00,,,0.00,,2013-04-08 22:03:00,
2013-04-08 18:13:00,74.0,50.0,29.96,SW,215,6.0,17.0,43,0.00,,,0.00,,2013-04-08 22:13:00,
2013-04-08 18:23:00,73.0,49.0,29.97,SW,215,5.0,17.0,43,0.00,,,0.00,,2013-04-08 22:23:00,
2013-04-08 18:32:00,73.0,49.0,29.97,SW,215,5.0,17.0,43,0.00,,,0.00,,2013-04-08 22:32:00,
2013-04-08 18:43:00,74.0,51.0,29.97,SSW,198,7.0,15.0,44,0.00,,,0.00,,2013-04-08 22:43:00,
2013-04-08 18:52:00,73.0,51.0,29.97,West,261,6.0,16.0,46,0.00,,,0.00,,2013-04-08 22:52:00,
2013-04-08 19:03:00,72.0,51.0,29.98,West,274,5.0,14.0,48,0.00,,,0.00,,2013-04-08 23:03:00,
2013-04-08 19:12:00,72.0,51.0,29.98,West,274,5.0,14.0,48,0.00,,,0.00,,2013-04-08 23:12:00,
2013-04-08 19:22:00,72.0,51.0,29.98,West,274,5.0,14.0,48,0.00,,,0.00,,2013-04-08 23:22:00,
2013-04-08 19:32:00,71.0,51.0,29.98,SSW,209,4.0,13.0,50,0.00,,,0.00,,2013-04-08 23:32:00,
2013-04-08 19:43:00,71.0,51.0,29.98,SSW,209,4.0,13.0,50,0.00,,,0.00,,2013-04-08 23:43:00,
2013-04-08 19:52:00,70.0,50.0,29.98,SW,222,2.0,11.0,50,0.00,,,0.00,,2013-04-08 23:52:00,
2013-04-08 20:02:00,69.0,51.0,29.98,WSW,238,3.0,13.0,52,0.00,,,0.00,,2013-04-09 00:02:00,
2013-04-08 20:13:00,69.0,51.0,29.98,WSW,238,3.0,13.0,52,0.00,,,0.00,,2013-04-09 00:13:00,
2013-04-08 20:22:00,69.0,51.0,29.98,SW,217,1.0,7.0,53,0.00,,,0.00,,2013-04-09 00:22:00,
2013-04-08 20:32:00,68.0,50.0,29.99,WSW,256,3.0,9.0,53,0.00,,,0.00,,2013-04-09 00:32:00,
2013-04-08 20:42:00,68.0,50.0,29.99,WSW,256,3.0,9.0,53,0.00,,,0.00,,2013-04-09 00:42:00,
2013-04-08 20:52:00,68.0,51.0,30.00,SW,221,1.0,8.0,54,0.00,,,0.00,,2013-04-09 00:52:00,
2013-04-08 21:03:00,67.0,50.0,30.00,SW,227,0.0,5.0,54,0.00,,,0.00,,2013-04-09 01:03:00,
2013-04-08 21:12:00,67.0,50.0,30.00,SW,227,0.0,5.0,54,0.00,,,0.00,,2013-04-09 01:12:00,
2013-04-08 21:22:00,67.0,50.0,30.01,WSW,244,0.0,6.0,55,0.00,,,0.00,,2013-04-09 01:22:00,
2013-04-08 21:34:00,66.0,49.0,30.01,SW,224,1.0,6.0,55,0.00,,,0.00,,2013-04-09 01:34:00,
2013-04-08 21:42:00,65.0,49.0,30.01,SW,216,0.0,7.0,57,0.00,,,0.00,,2013-04-09 01:42:00,
2013-04-08 21:52:00,65.0,49.0,30.01,SW,216,0.0,7.0,57,0.00,,,0.00,,2013-04-09 01:52:00,
2013-04-08 22:02:00,65.0,49.0,30.01,SSW,198,1.0,3.0,57,0.00,,,0.00,,2013-04-09 02:02:00,
2013-04-08 22:13:00,65.0,49.0,30.01,SSW,198,1.0,3.0,57,0.00,,,0.00,,2013-04-09 02:13:00,
2013-04-08 22:22:00,64.0,49.0,30.01,SSE,165,0.0,4.0,58,0.00,,,0.00,,2013-04-09 02:22:00,
2013-04-08 22:33:00,64.0,49.0,30.02,South,179,0.0,3.0,59,0.00,,,0.00,,2013-04-09 02:33:00,
2013-04-08 22:43:00,63.0,49.0,30.02,South,179,0.0,1.0,60,0.00,,,0.00,,2013-04-09 02:43:00,
2013-04-08 22:52:00,63.0,49.0,30.02,South,179,0.0,1.0,60,0.00,,,0.00,,2013-04-09 02:52:00,
2013-04-08 23:02:00,63.0,49.0,30.03,South,179,0.0,0.0,60,0.00,,,0.00,,2013-04-09 03:02:00,
2013-04-08 23:12:00,63.0,49.0,30.03,South,179,0.0,0.0,60,0.00,,,0.00,,2013-04-09 03:12:00,
2013-04-08 23:22:00,62.0,49.0,30.03,South,179,0.0,1.0,62,0.00,,,0.00,,2013-04-09 03:22:00,
2013-04-08 23:33:00,61.0,49.0,30.03,South,179,0.0,0.0,64,0.00,,,0.00,,2013-04-09 03:33:00,
2013-04-08 23:43:00,61.0,49.0,30.03,South,179,0.0,0.0,64,0.00,,,0.00,,2013-04-09 03:43:00,
2013-04-08 23:53:00,60.0,48.0,30.03,South,179,0.0,0.0,65,0.00,,,0.00,,2013-04-09 03:53:00,